Regional Weather Roundup
Issued by NWS

Home | Current Version | Previous Version | Text Only | Print | Product List | Glossary On
Versions: 1 2 3 4 5 6 7 8 9 10 11 12 13 14 15 16 17 18 19 20 21 22 23 24 25 26 27 28
000
ASUS45 KBOU 280610
RWRCO

WEATHER ROUNDUP FOR COLORADO
NATIONAL WEATHER SERVICE DENVER/BOULDER CO
1200 AM MDT MON MAY 28 2018

NOTE: "FAIR" INDICATES FEW OR NO CLOUDS BELOW 12000 FEET WITH NO
SIGNIFICANT WEATHER AND/OR OBSTRUCTIONS TO VISIBILITY.

COZ001>005-013-030-031-280700-
...NORTHWEST COLORADO...

CITY           SKY/WX    TMP DP  RH WIND       PRES   REMARKS
CRAIG          FAIR      61  42  49 N13       30.01R
HAYDEN         CLOUDY    61  30  31 W12       30.02R
MEEKER         FAIR      52  28  39 CALM      30.02R
RANGELY        FAIR      53  32  44 SE6       29.97S
RABBIT EARS PA FAIR      46  16  29 W8        30.26S
STEAMBOAT SPGS FAIR      57  32  38 SE6       30.02S
WALDEN         CLOUDY    43  37  81 E16       30.17R
$$

COZ006>008-011-280700-
...WEST CENTRAL VALLEYS...

CITY           SKY/WX    TMP DP  RH WIND       PRES   REMARKS
GRAND JUNCTION FAIR      64  15  15 VRB5      29.92R
MONTROSE       FAIR      56  19  23 SE8       30.00S
EAGLE          FAIR      57  21  24 E5        30.03F
RIFLE          FAIR      59  21  23 S5        29.98R
DELTA          FAIR      64  17  16 S5        29.96R
NUCLA          FAIR      57  10  15 E9        30.04S
$$

COZ017>023-064>068-280700-
...SOUTHWEST COLORADO...

CITY           SKY/WX    TMP DP  RH WIND       PRES   REMARKS
DURANGO        FAIR      56  16  20 W5        30.03S
CORTEZ         FAIR      49  17  28 NE8       30.02R
PAGOSA SPRINGS FAIR      50   8  18 NE3       30.10S
TELLURIDE      FAIR      49  14  25 SE7       30.21S
WOLF CREEK PAS FAIR      43   5  21 S6        30.41F
$$

COZ009-010-012-014-032>034-037-058>063-280700-
...CENTRAL COLORADO...

CITY           SKY/WX    TMP DP  RH WIND       PRES   REMARKS
ASPEN          FAIR      47  25  42 SW10      30.09R
BUENA VISTA    FAIR      52   2  13 CALM      30.07S
COPPER MTN     FAIR      46  14  27 NW12      30.36F
BERTHOUD PASS  MOCLDY    32  23  69 SE21      30.39F THUNDER WCI  20
COTTONWOOD PAS FAIR      63 -15   4 SW13G18   30.21S
GUNNISON       FAIR      51  19  28 W3        30.10R
GRANBY         MOCLDY    53  39  59 E6        30.14F THUNDER
KREMMLING      FAIR      55  41  58 CALM      30.09R
LEADVILLE      FAIR      37  15  40 NE7       30.20F
MONARCH PASS   FAIR      45   0  15 MISG      30.46S
SALIDA         FAIR      61   4  10 W7        30.12S
SUNLIGHT       FAIR      43  10  26 W7        30.31R
WILKERSON PASS FAIR      45  28  53 E7        30.34F
$$

COZ069>075-280700-
...SAN LUIS VALLEY/SANGRE DE CRISTO MOUNTAINS...

CITY           SKY/WX    TMP DP  RH WIND       PRES   REMARKS
ALAMOSA        FAIR      46  20  35 S6        30.05S
DEL NORTE      FAIR      54  10  17 W9        30.09F
LA VETA PASS   FAIR      54   5  14 S15G22    30.35S
SAGUACHE       NOT AVBL
$$

COZ035-036-038>040-280700-
...NORTHERN COLORADO FRONT RANGE...

CITY           SKY/WX    TMP DP  RH WIND       PRES   REMARKS
DENVER INTL AP CLOUDY    59  48  67 N22G29    30.02R
AURORA         CLOUDY    59  48  67 N20G25    30.04R
FRONT RANGE AP MOCLDY    58  50  74 NW14G21   30.03R
ERIE MUNI ARPT CLOUDY    63  46  54 N13       30.10R
BOULDER MUN AP CLOUDY    61  45  55 NW7       30.06S
CENTENNIAL     MOCLDY    61  45  55 N16       30.04R
BROOMFIELD     CLOUDY    63  45  51 N22G28    30.06S
FORT COLLINS   CLOUDY    60  50  69 N15       30.07R
LONGMONT       CLOUDY    64  46  52 N14       30.08R
$$

COZ041-046-047-076>085-087-088-280700-
...PIKES PEAK/PALMER DIVIDE AND SOUTHERN FOOTHILLS...

CITY           SKY/WX    TMP DP  RH WIND       PRES   REMARKS
COLO. SPRINGS  FAIR      62  43  49 NW21G38   30.00R
A. F. ACADEMY  FAIR      58  41  52 N13G22    30.03R
SCHRIEVER AFB  NOT AVBL
CHEYENNE MTN   FAIR      61  37  40 NW16      29.95S
ELLICOTT         N/A    N/A N/A N/A N14       29.99R
FALCON         FAIR      54  42  64 N14       30.06R
FORT CARSON    FAIR      64  41  42 N22       29.94R
LIMON          FAIR      55  46  71 NW3       29.97R
MONUMENT HILL  FAIR      50  41  71 NW9       30.10R
CANON CITY     CLEAR     70  27  19 NE8G20    29.89R
WALSENBURG     FAIR      63   5  10 SW10      29.94S
TRINIDAD       FAIR      64  40  41 S10       29.93S
$$

COZ042>045-048>051-090-091-280700-
...NORTHEAST COLORADO...

CITY           SKY/WX    TMP DP  RH WIND       PRES   REMARKS
GREELEY ARPT   CLOUDY    61  50  67 N14       30.04R
AKRON          FAIR      57  55  93 E16G24    29.97R
BURLINGTON     FAIR      71  58  63 E9        29.91R
WRAY           FAIR      61  54  77 E6        29.95R
YUMA           FAIR      57  46  67 NE10      29.96R
STERLING       CLOUDY    61  55  82 E17G24    29.95S
HOLYOKE        MOCLDY    63  55  77 NE17      29.96F
FORT MORGAN    CLOUDY    61  51  71 NE22G30   29.97R
$$

COZ086-089-092>099-280700-
...SOUTHEAST COLORADO...

CITY           SKY/WX    TMP DP  RH WIND       PRES   REMARKS
PUEBLO         FAIR      69  46  43 N23G35    29.86R
LA JUNTA       FAIR      76  57  51 S25G39    29.84R
LAMAR          FAIR      76  56  49 S31G45    29.79R
SPRINGFIELD      N/A     70  59  68 S18G29    29.91S
$$




USA.gov is the U.S. government's official web portal to all federal, state and local government web resources and services.